�N����,����,�~����,�C��,���x,�C��,����,���ϕ���,�ő�u�ԕ���,�ő厞����,���˗�,�I�_���x,�n�����x,�ő啗���N��,DTYPE
"19/10/24","00:10",0.0,16.1,89.8,1013.0,300.5,1.0,1.6,339.8,0.00,14.5,19.4,"00:04:32",1
"19/10/24","00:20",0.0,16.1,90.1,1013.3,287.7,1.0,1.3,326.3,0.00,14.5,19.3,"00:12:16",1
"19/10/24","00:30",0.0,16.1,90.3,1013.3,290.8,1.0,2.4,326.2,0.00,14.6,19.3,"00:27:20",1
"19/10/24","00:40",0.0,16.2,90.0,1013.0,302.1,1.3,2.4,329.0,0.00,14.6,19.3,"00:36:16",1
"19/10/24","00:50",0.0,16.3,90.2,1013.5,282.2,0.8,1.6,272.4,0.00,14.7,19.1,"00:41:44",1
"19/10/24","01:00",0.0,16.3,90.1,1013.3,292.9,1.0,1.8,320.0,0.00,14.7,19.1,"00:55:20",1
"19/10/24","01:10",0.0,16.5,90.0,1013.3,283.0,1.1,2.1,311.8,0.00,14.9,19.2,"01:01:04",1
"19/10/24","01:20",0.0,16.5,89.9,1013.3,298.5,1.1,2.0,330.4,0.00,14.9,19.2,"01:17:44",1
"19/10/24","01:30",0.0,16.5,89.9,1013.8,305.7,0.8,1.2,296.6,0.00,14.9,19.1,"01:24:24",1
"19/10/24","01:40",0.0,16.5,90.1,1013.8,293.3,1.1,2.0,311.2,0.00,14.9,19.0,"01:30:56",1
"19/10/24","01:50",0.0,16.5,90.1,1013.8,298.5,1.1,1.8,313.0,0.00,14.9,19.0,"01:42:08",1
"19/10/24","02:00",0.0,16.7,90.0,1013.8,307.5,1.3,2.9,324.8,0.00,15.1,19.0,"01:53:52",1
"19/10/24","02:10",0.0,16.7,89.8,1013.5,310.1,1.2,2.0,338.6,0.00,15.1,19.2,"02:03:44",1
"19/10/24","02:20",0.0,16.6,90.0,1014.0,310.8,1.0,1.8,332.4,0.00,15.0,19.0,"02:13:28",1
"19/10/24","02:30",0.0,16.6,90.1,1014.0,290.4,0.8,1.7,333.8,0.00,15.0,19.1,"02:28:08",1
"19/10/24","02:40",0.0,16.5,90.1,1013.8,304.7,1.1,1.8,307.0,0.00,14.9,19.0,"02:30:32",1
"19/10/24","02:50",0.0,16.5,90.4,1014.0,307.8,1.1,2.1,328.9,0.00,15.0,18.9,"02:45:44",1
"19/10/24","03:00",0.0,16.5,90.7,1014.2,291.9,1.0,1.3,312.0,0.00,15.0,18.8,"02:57:52",1
"19/10/24","03:10",0.0,16.5,90.9,1014.0,297.7,1.1,2.0,317.8,0.00,15.0,18.8,"03:09:52",1
"19/10/24","03:20",0.0,16.6,91.1,1014.0,297.5,1.0,1.7,324.6,0.00,15.2,19.1,"03:16:48",1
"19/10/24","03:30",0.0,16.6,91.0,1014.2,297.0,1.1,1.8,335.1,0.00,15.2,18.9,"03:25:44",1
"19/10/24","03:40",0.0,16.7,91.1,1014.0,297.7,1.1,1.8,325.0,0.00,15.3,19.1,"03:34:32",1
"19/10/24","03:50",0.0,16.8,91.1,1013.8,270.7,0.8,1.4,305.2,0.00,15.4,19.0,"03:40:48",1
"19/10/24","04:00",0.0,16.9,91.0,1013.3,266.1,1.1,1.7,265.8,0.00,15.5,18.9,"03:52:40",1
"19/10/24","04:10",0.0,16.9,91.0,1013.3,291.8,1.1,1.7,306.4,0.00,15.5,18.8,"04:05:28",1
"19/10/24","04:20",0.0,17.0,91.2,1013.0,291.3,1.2,2.4,309.6,0.00,15.6,18.7,"04:14:24",1
"19/10/24","04:30",0.0,17.1,91.0,1013.3,284.3,1.1,2.2,331.3,0.00,15.7,18.9,"04:21:12",1
"19/10/24","04:40",0.0,17.2,91.1,1013.3,265.1,1.0,1.2,264.3,0.00,15.8,18.7,"04:30:08",1
"19/10/24","04:50",0.0,17.2,91.0,1013.0,283.8,1.1,1.6,274.8,0.00,15.8,19.0,"04:47:28",1
"19/10/24","05:00",0.0,17.3,90.8,1013.5,280.9,1.1,2.0,315.6,0.00,15.8,19.0,"04:54:40",1
"19/10/24","05:10",0.0,17.4,90.4,1013.5,274.3,1.1,2.0,242.1,0.00,15.9,18.8,"05:05:52",1
"19/10/24","05:20",0.0,17.2,90.4,1013.5,279.5,1.0,1.6,285.9,0.00,15.7,19.0,"05:17:52",1
"19/10/24","05:30",0.0,17.2,90.5,1013.5,288.4,1.1,1.7,245.0,0.00,15.7,19.1,"05:23:20",1
"19/10/24","05:40",0.0,17.2,90.5,1013.5,271.2,1.0,1.6,242.9,0.00,15.7,19.0,"05:39:20",1
"19/10/24","05:50",0.0,17.2,90.5,1013.3,278.9,1.0,2.0,261.2,0.00,15.7,19.1,"05:42:16",1
"19/10/24","06:00",0.2,17.1,90.7,1013.8,265.1,1.0,1.4,241.1,0.00,15.6,19.0,"05:51:20",1
"19/10/24","06:10",0.2,17.1,91.0,1014.2,296.5,0.7,1.4,313.8,0.00,15.7,19.0,"06:00:40",1
"19/10/24","06:20",1.8,17.0,91.4,1013.8,282.4,0.7,1.7,323.9,0.00,15.6,19.0,"06:16:40",1
"19/10/24","06:30",1.2,17.0,92.2,1014.2,292.1,1.0,1.6,335.9,0.00,15.8,19.0,"06:27:12",1
"19/10/24","06:40",0.6,17.0,92.3,1013.8,274.8,0.8,1.4,242.2,0.00,15.8,19.0,"06:30:16",1
"19/10/24","06:50",0.4,17.0,92.8,1014.0,275.9,0.8,1.6,269.2,0.00,15.9,18.6,"06:40:16",1
"19/10/24","07:00",0.6,17.1,93.1,1014.0,273.2,0.6,1.0,245.4,0.00,16.0,19.0,"06:53:12",1
"19/10/24","07:10",0.6,17.2,93.4,1014.0,331.8,0.6,1.2,277.9,0.00,16.2,19.0,"07:06:50",1
"19/10/24","07:20",0.4,17.3,93.6,1013.8,311.3,1.2,1.7,346.1,0.00,16.3,18.9,"07:12:00",1
"19/10/24","07:30",0.2,17.3,93.8,1014.0,283.5,0.8,1.2,270.4,0.00,16.3,18.9,"07:26:56",1
"19/10/24","07:40",0.2,17.4,94.0,1014.2,310.9,1.1,1.8,315.5,0.00,16.5,18.9,"07:35:36",1
"19/10/24","07:50",0.0,17.5,94.2,1014.2,314.6,1.1,1.8,309.4,0.00,16.6,19.0,"07:44:16",1
"19/10/24","08:00",0.0,17.5,94.3,1014.0,290.2,1.1,1.6,323.2,0.00,16.6,18.8,"07:50:24",1
"19/10/24","08:10",0.2,17.6,94.6,1014.2,273.0,1.2,2.1,326.2,0.00,16.8,18.8,"08:08:46",1
"19/10/24","08:20",0.0,17.7,94.6,1014.2,292.7,1.0,1.9,252.0,0.00,16.9,19.0,"08:10:26",1
"19/10/24","08:30",0.0,17.9,94.6,1014.2,283.5,1.0,1.8,304.8,0.00,17.1,19.0,"08:21:20",1
"19/10/24","08:40",0.0,17.9,94.7,1014.2,271.2,1.1,2.1,235.7,0.01,17.1,19.0,"08:31:28",1
"19/10/24","08:50",0.0,18.2,94.9,1014.5,278.3,1.0,1.7,296.4,0.04,17.4,19.0,"08:48:48",1
"19/10/24","09:00",0.0,18.4,94.9,1014.5,269.0,0.7,1.2,241.1,0.04,17.6,18.9,"08:54:24",1
"19/10/24","09:10",0.0,18.4,94.7,1014.5,262.4,0.5,1.2,337.1,0.03,17.6,19.0,"09:02:40",1
"19/10/24","09:20",0.0,18.6,94.8,1014.5,141.6,0.3,1.7,66.1,0.05,17.8,19.1,"09:19:52",1
"19/10/24","09:30",0.0,18.7,94.9,1014.0,78.0,0.6,3.1,43.8,0.05,17.9,19.2,"09:28:02",1
"19/10/24","09:40",0.0,19.0,94.9,1013.8,210.7,0.5,1.4,32.3,0.07,18.2,19.2,"09:30:16",1
"19/10/24","09:50",0.0,19.0,94.7,1013.8,155.8,0.7,2.1,106.0,0.06,18.2,19.3,"09:41:52",1
"19/10/24","10:00",0.0,19.1,94.9,1014.0,158.4,0.5,1.1,205.3,0.02,18.3,19.3,"09:55:04",1
"19/10/24","10:10",0.0,19.0,94.8,1014.2,34.8,0.5,2.8,108.2,0.01,18.2,19.3,"10:00:02",1
"19/10/24","10:20",0.0,19.1,95.0,1014.2,17.2,0.7,2.5,97.2,0.03,18.3,19.3,"10:10:16",1
"19/10/24","10:30",0.0,19.0,95.0,1014.2,35.2,0.8,2.0,103.6,0.04,18.2,19.4,"10:25:04",1
"19/10/24","10:40",0.0,18.9,95.3,1014.0,58.8,1.5,3.5,43.3,0.04,18.2,19.3,"10:32:40",1
"19/10/24","10:50",0.0,19.0,95.2,1014.0,63.9,1.0,2.2,136.7,0.05,18.3,19.3,"10:47:20",1
"19/10/24","11:00",0.0,19.0,95.2,1013.5,64.8,1.1,2.7,23.0,0.04,18.3,19.4,"10:55:12",1
"19/10/24","11:10",0.0,19.2,95.2,1013.5,63.5,0.7,2.0,84.5,0.04,18.5,19.4,"11:07:28",1
"19/10/24","11:20",0.0,19.0,95.1,1013.5,60.9,0.8,2.9,123.1,0.02,18.2,19.6,"11:19:20",1
"19/10/24","11:30",0.0,19.2,95.2,1013.3,83.3,1.1,3.2,112.7,0.03,18.5,19.5,"11:26:16",1
"19/10/24","11:40",0.0,19.1,95.1,1013.0,46.8,1.2,3.9,32.9,0.03,18.3,19.6,"11:34:32",1
"19/10/24","11:50",0.0,19.0,94.9,1012.8,63.1,1.3,3.9,31.8,0.02,18.2,19.7,"11:40:08",1
"19/10/24","12:00",0.0,19.2,94.6,1012.8,71.8,1.5,3.4,113.3,0.02,18.4,19.5,"11:54:08",1
"19/10/24","12:10",0.0,19.5,94.7,1012.8,35.7,0.8,2.9,67.6,0.03,18.7,19.4,"12:01:28",1
"19/10/24","12:20",0.2,19.3,94.6,1012.8,52.1,1.0,2.6,355.4,0.02,18.5,19.7,"12:17:04",1
"19/10/24","12:30",0.0,19.1,94.7,1013.0,69.4,0.7,1.9,82.6,0.01,18.3,19.6,"12:27:12",1
"19/10/24","12:40",0.0,19.2,94.6,1012.8,50.9,0.7,1.6,341.3,0.00,18.4,19.7,"12:39:04",1
"19/10/24","12:50",0.0,19.1,94.7,1012.3,45.1,1.0,2.7,126.1,0.01,18.3,19.8,"12:42:24",1
"19/10/24","13:00",0.0,19.0,94.5,1012.8,16.8,0.7,2.0,110.5,0.01,18.1,19.5,"12:57:20",1
"19/10/24","13:10",0.0,19.1,94.2,1012.6,10.3,0.7,1.6,89.3,0.00,18.2,19.6,"13:04:00",1
"19/10/24","13:20",0.4,19.0,94.6,1013.0,2.5,0.7,1.9,33.0,0.00,18.2,19.7,"13:14:40",1
"19/10/24","13:30",0.4,18.5,94.0,1013.0,8.3,0.6,1.7,88.8,0.00,17.6,19.6,"13:28:56",1
"19/10/24","13:40",0.2,18.5,94.1,1012.8,344.7,0.7,1.4,314.5,0.01,17.6,19.6,"13:33:04",1
"19/10/24","13:50",0.2,18.5,94.0,1012.6,343.2,0.7,1.8,328.1,0.02,17.6,19.6,"13:41:20",1
"19/10/24","14:00",0.2,18.5,94.0,1012.8,16.5,0.6,1.3,306.4,0.01,17.6,19.7,"13:56:08",1
"19/10/24","14:10",0.2,18.6,94.6,1012.6,68.0,0.5,1.6,78.1,0.01,17.8,19.6,"14:02:16",1
"19/10/24","14:20",0.0,18.6,94.6,1013.0,0.9,0.6,2.1,107.9,0.00,17.8,19.7,"14:19:44",1
"19/10/24","14:30",0.2,18.5,94.8,1013.0,79.7,1.2,3.5,22.0,0.01,17.7,19.5,"14:25:20",1
"19/10/24","14:40",0.2,18.6,94.6,1013.0,33.5,0.7,2.4,113.3,0.00,17.8,19.5,"14:33:52",1
"19/10/24","14:50",0.2,18.5,94.8,1012.8,85.2,0.6,1.6,70.8,0.01,17.7,19.4,"14:41:28",1
"19/10/24","15:00",0.6,18.2,94.9,1012.8,97.7,1.2,3.1,107.3,0.02,17.4,19.4,"14:57:44",1
"19/10/24","15:10",0.4,18.2,95.0,1012.8,55.5,0.8,2.8,98.6,0.01,17.4,19.4,"15:03:20",1
"19/10/24","15:20",0.2,18.1,95.0,1012.8,24.5,0.8,2.1,87.7,0.00,17.3,19.5,"15:19:20",1
"19/10/24","15:30",0.2,17.9,95.0,1012.3,20.7,0.8,2.1,56.0,0.00,17.1,19.6,"15:23:36",1
"19/10/24","15:40",0.2,17.8,95.1,1012.3,15.4,0.8,1.8,350.4,0.00,17.0,19.5,"15:33:20",1
"19/10/24","15:50",0.0,17.8,95.3,1012.6,44.1,0.6,1.4,76.1,0.01,17.1,19.3,"15:42:08",1
"19/10/24","16:00",0.2,17.8,95.4,1012.6,20.9,0.7,1.7,317.0,0.01,17.1,19.2,"15:59:12",1
"19/10/24","16:10",0.0,17.9,95.3,1012.3,293.5,0.6,1.4,318.4,0.01,17.2,19.3,"16:00:48",1
"19/10/24","16:20",0.0,17.8,95.4,1012.1,44.5,0.5,1.3,74.4,0.01,17.1,19.3,"16:18:08",1
"19/10/24","16:30",0.2,17.8,95.5,1012.1,9.1,0.7,2.1,100.9,0.01,17.1,19.4,"16:26:16",1
"19/10/24","16:40",0.2,17.9,95.4,1011.9,349.0,0.7,2.2,83.8,0.01,17.2,19.5,"16:31:12",1
"19/10/24","16:50",0.0,17.8,95.5,1012.1,320.2,0.8,2.0,340.9,0.00,17.1,19.4,"16:49:20",1
"19/10/24","17:00",0.2,17.7,95.5,1012.1,327.6,0.8,1.6,314.0,0.00,17.0,19.4,"16:56:16",1
"19/10/24","17:10",0.0,17.6,95.6,1011.6,305.4,0.6,1.4,326.2,0.00,16.9,19.3,"17:07:48",1
"19/10/24","17:20",0.0,17.5,95.8,1012.1,29.2,0.7,2.2,111.4,0.00,16.9,19.4,"17:13:36",1
"19/10/24","17:30",0.2,17.3,95.8,1012.1,348.8,0.8,2.1,359.6,0.00,16.7,19.4,"17:27:52",1
"19/10/24","17:40",0.2,17.2,95.8,1011.9,333.6,0.7,3.1,356.8,0.00,16.6,19.3,"17:37:36",1
"19/10/24","17:50",0.2,17.1,96.0,1012.1,42.0,1.0,2.9,100.0,0.00,16.5,19.3,"17:47:20",1
"19/10/24","18:00",0.0,17.3,95.9,1011.9,316.6,0.6,1.3,320.6,0.00,16.7,19.2,"17:52:56",1
"19/10/24","18:10",0.4,17.2,95.9,1012.1,300.7,0.5,1.7,311.1,0.00,16.6,19.3,"18:09:28",1
"19/10/24","18:20",0.0,17.0,96.1,1012.1,48.4,1.0,2.6,31.6,0.00,16.4,19.4,"18:16:56",1
"19/10/24","18:30",0.2,17.0,96.2,1012.1,78.3,1.1,2.6,341.0,0.00,16.4,19.4,"18:28:56",1
"19/10/24","18:40",0.0,17.0,96.0,1012.6,312.4,0.7,1.8,356.8,0.00,16.4,19.2,"18:34:32",1
"19/10/24","18:50",0.2,16.9,96.2,1012.3,334.5,0.6,2.0,20.3,0.00,16.3,19.3,"18:45:04",1
"19/10/24","19:00",0.4,16.9,96.1,1012.6,347.3,0.7,2.1,336.4,0.00,16.3,19.1,"18:50:24",1
"19/10/24","19:10",0.4,16.8,96.3,1013.0,104.4,0.7,2.0,101.1,0.00,16.2,19.1,"19:01:12",1
"19/10/24","19:20",0.6,16.8,96.3,1012.6,63.4,0.6,1.9,92.8,0.00,16.2,19.1,"19:18:56",1
"19/10/24","19:30",0.6,16.6,96.4,1012.8,41.1,1.2,2.7,108.4,0.00,16.1,19.2,"19:25:44",1
"19/10/24","19:40",0.4,16.6,96.4,1013.0,47.2,1.1,2.6,100.6,0.00,16.1,19.0,"19:34:48",1
"19/10/24","19:50",0.4,16.5,96.5,1013.0,33.4,1.3,2.7,67.8,0.00,16.0,18.9,"19:48:56",1
"19/10/24","20:00",1.0,16.5,96.6,1012.6,46.9,1.3,3.5,79.9,0.00,16.0,19.0,"19:51:52",1
"19/10/24","20:10",1.0,16.3,96.6,1012.6,16.5,1.1,2.2,342.7,0.00,15.8,18.9,"20:08:24",1
"19/10/24","20:20",0.8,16.2,96.6,1012.6,42.9,1.5,2.8,32.4,0.00,15.7,18.8,"20:19:52",1
"19/10/24","20:30",0.4,16.2,96.7,1012.3,43.3,1.1,2.6,47.5,0.00,15.7,18.8,"20:20:16",1
"19/10/24","20:40",0.4,16.1,96.7,1012.3,32.7,1.1,1.8,100.5,0.00,15.6,18.8,"20:38:40",1
"19/10/24","20:50",0.0,16.1,96.8,1012.1,355.9,0.7,2.0,108.4,0.00,15.6,18.7,"20:46:40",1
"19/10/24","21:00",0.2,16.1,96.8,1012.1,330.4,0.6,1.7,317.2,0.00,15.6,18.6,"20:54:08",1
"19/10/24","21:10",0.2,16.1,96.9,1012.1,10.3,0.7,2.8,314.4,0.00,15.6,18.5,"21:04:02",1
"19/10/24","21:20",0.0,16.1,96.9,1012.1,359.3,0.6,1.7,335.6,0.00,15.6,18.5,"21:16:56",1
"19/10/24","21:30",0.2,16.1,97.0,1012.3,359.3,0.8,1.9,326.5,0.00,15.7,18.4,"21:24:48",1
"19/10/24","21:40",0.6,16.1,97.0,1012.3,347.3,1.0,1.8,356.9,0.00,15.7,18.7,"21:31:20",1
"19/10/24","21:50",0.4,16.0,97.0,1012.1,340.1,1.2,2.0,340.0,0.00,15.6,18.7,"21:46:32",1
"19/10/24","22:00",0.4,15.9,97.0,1011.6,314.3,0.8,1.8,315.8,0.00,15.5,18.6,"21:50:56",1
"19/10/24","22:10",0.4,15.9,97.0,1011.6,278.1,1.0,2.0,253.5,0.00,15.5,18.7,"22:09:44",1
"19/10/24","22:20",0.4,15.9,97.2,1011.9,327.4,1.2,1.9,338.9,0.00,15.5,18.6,"22:16:28",1
"19/10/24","22:30",0.4,15.9,97.2,1012.1,323.1,0.7,1.7,318.8,0.00,15.5,18.5,"22:26:12",1
"19/10/24","22:40",0.4,15.9,97.2,1011.9,339.2,0.8,1.4,332.5,0.00,15.5,18.7,"22:33:22",1
"19/10/24","22:50",0.4,15.8,97.2,1011.6,342.0,0.7,1.6,6.8,0.00,15.4,18.6,"22:42:18",1
"19/10/24","23:00",0.4,15.8,97.2,1011.6,272.5,0.8,1.7,313.9,0.00,15.4,18.6,"22:57:56",1
"19/10/24","23:10",0.6,15.8,97.3,1011.9,301.5,0.8,1.3,322.9,0.00,15.4,18.5,"23:07:22",1
"19/10/24","23:20",0.4,15.8,97.3,1011.4,306.9,1.1,2.0,286.7,0.00,15.4,18.5,"23:13:16",1
"19/10/24","23:30",0.4,15.8,97.4,1011.4,275.2,0.7,1.4,312.7,0.00,15.4,18.6,"23:25:04",1
"19/10/24","23:40",0.2,15.8,97.4,1011.4,266.1,1.1,2.1,235.8,0.00,15.4,18.6,"23:31:20",1
"19/10/24","23:50",0.0,15.8,97.4,1011.6,274.1,1.1,2.1,307.2,0.00,15.4,18.6,"23:48:56",1
"19/10/24","24:00",0.2,15.7,97.5,1011.2,299.1,1.0,1.7,321.6,0.00,15.3,18.5,"23:57:42",1
